{"data":{"norad_id":57185,"intl_designator":"2023-091V","name":"2023-091V","alt_names":[],"object_type":"PAYLOAD","status":"ACTIVE","operator":null,"country":"TBD","launch_date":"2023-06-27","launch_site_code":"VOSTO","launch_vehicle":null,"mission":null,"orbit_class":"UNKNOWN","rcs_meters":null,"size_class":null,"mass_kg":null,"dimensions":null,"purposes":[],"wikipedia_slug":null,"has_3d_model":false,"image_url":null,"decayed_at":null,"tle_current":{"epoch":"2026-05-25T03:42:07.221600Z","epoch_age_seconds":68675,"freshness":"FRESH","line1":"1 57185U 23091V   26145.15425025  .00020200  00000+0  53436-3 0  9990","line2":"2 57185  97.5072 215.3007 0008057 149.5853 210.5861 15.38399842161239","mean_motion":15.38399842,"eccentricity":0.0008057,"inclination_deg":97.5072,"raan_deg":215.3007,"arg_perigee_deg":149.5853,"mean_anomaly_deg":210.5861,"bstar":0.00053436,"rev_number":16123,"period_min":93.603753763256,"perigee_km":445.33852518165,"apogee_km":456.34273973859,"semimajor_km":6828.9776324601,"source":"CELESTRAK","updated_at":"2026-05-25T13:37:59.910812Z"}}}